Torna al catalogo

COSMOS 2251 DEB

AttivoLEO
NORAD 34579·DEBRIS·🇷🇺 Russia

Lanciato Jun 16, 1993 da Plesetsk Cosmodrome

Loading…

Prossimi Passaggi (prossime 24 ore)

TLE

AggiornatoSource: Space-Track

Epoca: Sep 14, 2026, 06:38 UTC

1 34579U 93036VR  26257.27679250  .00000833  00000-0  24039-3 0  9994
2 34579  74.0510  70.5643 0026092  71.3746 349.9010 14.46014053921566

Traccia COSMOS 2251 DEB in tempo reale con AllMySat

Download on the App Store